This is the latest recevied weather packets stored in our database for station/object PY2UTU-WX. If no packets are shown the sender has not sent any weather packets the latest 10 day(s).
| Time | Temp. | Humidity | Pressure | Rain* | Wind** | Luminosity | Snow |
|---|---|---|---|---|---|---|---|
| 1777814844 | 17.78° C | 98% | 928.8 hPa | - | - | - | - |
| 1777813943 | 17.22° C | 98% | 929 hPa | - | - | - | - |
| 1777813044 | 17.78° C | 98% | 929 hPa | - | - | - | - |
| 1777812143 | 18.33° C | 98% | 928.8 hPa | - | - | - | - |
| 1777811244 | 18.33° C | 98% | 928.6 hPa | - | - | - | - |
| 1777810343 | 18.89° C | 98% | 928.5 hPa | - | - | - | - |
| 1777809444 | 17.78° C | 98% | 928.2 hPa | - | - | - | - |
| 1777808543 | 18.33° C | 98% | 928.2 hPa | - | - | - | - |
| 1777807643 | 18.33° C | 98% | 927.7 hPa | - | - | - | - |
| 1777806743 | 17.78° C | 98% | 927.6 hPa | - | - | - | - |
| 1777805844 | 18.33° C | 98% | 927.4 hPa | - | - | - | - |
| 1777804943 | 18.33° C | 98% | 927.2 hPa | - | - | - | - |
| 1777804043 | 18.89° C | 98% | 927.1 hPa | - | - | - | - |
| 1777803144 | 18.89° C | 98% | 926.8 hPa | - | - | - | - |
| 1777802243 | 18.89° C | 98% | 926.6 hPa | - | - | - | - |
| 1777801343 | 18.89° C | 98% | 926.5 hPa | - | - | - | - |
| 1777800443 | 18.89° C | 98% | 926.2 hPa | - | - | - | - |
| 1777799543 | 19.44° C | 98% | 926.1 hPa | - | - | - | - |
| 1777798643 | 19.44° C | 98% | 926 hPa | - | - | - | - |
| 1777797743 | 20° C | 98% | 925.8 hPa | - | - | - | - |
| 1777796843 | 19.44° C | 98% | 925.7 hPa | - | - | - | - |
| 1777795943 | 18.89° C | 98% | 925.5 hPa | - | - | - | - |
| 1777795044 | 18.33° C | 98% | 925.5 hPa | - | - | - | - |
| 1777794143 | 19.44° C | 98% | 925.5 hPa | - | - | - | - |
| 1777793243 | 19.44° C | 98% | 925.2 hPa | - | - | - | - |
* Rain since midnight (hover to see other rain measurements)
** Current wind speed in m/s (hover to see current wind gust speed)